www.pogodaiklimat.ru

Погода и климат >> Архив погоды >> Россия >> Алтайский край >> Чарышское


ПОГОДА в Чарышском

  • Прогноз погоды в Чарышском
  • Монитор погоды в Чарышском
  • Климат города

АРХИВ ПОГОДЫ в Чарышском

Время (UTC), дата Ветер
(напр.,м/с)
 
Видим.   Явления Облачность Т
(С)
Тd
(С)
f
(%)
Тe
(С)
Тes
(С)
Комфортность P
(гПа)
Po
(гПа)
Тmin
(С)
Tmax
(С)
R
(мм)
S
(см)
00 19.03 штиль 0 50 км 5 баллов -12.7 -15.3 81 -13 -13 1032.2 976.0 -13.6
03 19.03 Ю 1 50 км ясно -9.7 -14.5 68 -12 -8 1031.5 976.0
06 19.03 СЗ 3 50 км 7 баллов -3.2 -11.6 52 -8 -6 1030.1 976.0
09 19.03 СЗ 2 50 км 9 баллов -1.3 -11.4 46 -4 -4 1029.7 976.0
12 19.03 СЗ 3 50 км 10 баллов -4.7 -11.9 57 -10 -10 1031.8 977.3 -1.1
15 19.03 СЗ 2 50 км 2 балла -8.1 -12.4 71 -12 -12 1035.4 980.0
18 19.03 штиль 0 50 км 1 балл -11.3 -14.1 80 -11 -11 1036.1 980.0
21 19.03 штиль 0 50 км 9 баллов -10.1 -13.4 77 -10 -10 1035.8 980.0
00 20.03 штиль 0 10 км слабый снег 10 баллов -9.7 -12.0 83 -10 -10 1035.7 980.0 -11.4 0.2
03 20.03 З 1 50 км 10 баллов -7.9 -11.4 76 -10 -10 1035.3 980.0
06 20.03 СЗ 1 50 км 4 балла -1.9 -9.3 57 -4 +3 1032.7 978.7
09 20.03 З 3 50 км 10 баллов +0.2 -9.8 47 -4 -4 1030.8 977.3
12 20.03 С 2 50 км ясно -3.2 -12.1 50 -7 -7 1033.0 978.7 +0.4
15 20.03 СЗ 1 50 км ясно -7.3 -11.6 71 -9 -9 1033.8 978.7
18 20.03 З 1 50 км ясно -10.7 -13.2 82 -13 -13 1034.6 978.7
21 20.03 штиль 0 50 км ясно -13.5 -15.3 86 -14 -14 1033.7 977.3
00 21.03 штиль 0 50 км ясно -15.0 -16.9 85 -15 -15 1034.1 977.3 -15.1
03 21.03 штиль 0 50 км ясно -10.9 -14.6 74 -11 -6 1033.1 977.3 -15.5
06 21.03 СЗ 2 50 км ясно -2.2 -10.7 52 -6 +4 1028.6 974.7
09 21.03 СВ 2 50 км ясно +4.2 -13.6 26 1026.4 973.3
12 21.03 СЗ 3 50 км ясно +1.7 -11.8 36 -2 -2 1026.3 973.3 +4.3
15 21.03 ЮВ 2 50 км ясно -0.3 -12.9 38 -3 -3 1028.2 974.7
18 21.03 ЮВ 1 50 км ясно -7.7 -12.7 67 -10 -10 1031.1 976.0
21 21.03 штиль 0 50 км ясно -10.3 -13.5 77 -11 -11 1031.6 976.0
00 22.03 штиль 0 50 км ясно -12.5 -14.9 82 -13 -13 1035.0 978.7 -12.5
03 22.03 ЮЗ 1 50 км ясно -7.8 -13.6 63 -10 -6 1035.3 980.0 -13.0
06 22.03 штиль 0 50 км ясно +4.6 -11.1 31 +5 +17 опасность
простуды
1031.4 978.7
09 22.03 СЗ 5 50 км ясно +6.4 -13.2 23 +3 +6 1031.1 978.7
12 22.03 СЗ 4 50 км ясно +4.3 -10.9 32 +1 +1 1032.9 980.0 +6.9
15 22.03 С 1 50 км ясно +0.7 -11.3 40 -0 -0 1036.4 982.7
18 22.03 ЮВ 1 50 км ясно -5.9 -11.0 67 -8 -8 1037.8 982.7
21 22.03 штиль 0 50 км ясно -8.4 -11.5 78 -9 -9 1038.3 982.7
00 23.03 штиль 0 50 км ясно -10.3 -12.6 83 -11 -11 1038.7 982.7 -10.3
03 23.03 ЮВ 1 50 км ясно -4.1 -11.1 58 -6 -1 1037.4 982.7 -10.5
06 23.03 ЮВ 2 50 км ясно +6.6 -10.6 28 +5 +15 опасность
простуды
1033.8 981.3
09 23.03 Ю 2 50 км ясно +9.0 -9.5 26 +8 +14 1031.9 980.0
12 23.03 Ю 1 50 км ясно +6.1 -7.5 37 +6 +6 1033.9 981.3 +9.4
15 23.03 ЮВ 1 50 км ясно -1.5 -6.6 68 -3 -3 1036.8 982.7
18 23.03 ЮВ 1 50 км ясно -4.2 -7.5 78 -6 -6 1035.9 981.3
21 23.03 штиль 0 50 км ясно -6.7 -9.3 82 -7 -7 1036.4 981.3
00 24.03 штиль 0 50 км ясно -8.6 -10.4 87 -9 -9 1036.9 981.3 -8.7
03 24.03 штиль 0 50 км ясно -1.9 -9.1 58 -2 +3 1035.5 981.3
06 24.03 З 1 50 км ясно +7.8 -8.7 30 +8 +19 опасность
простуды
1029.3 977.3
09 24.03 З 1 50 км ясно +12.8 -9.6 20 +13 +21 1025.7 974.7
12 24.03 ЮВ 1 50 км 7 баллов +8.8 -6.6 33 +9 +9 1024.9 973.3 +13.4
15 24.03 ЮВ 1 50 км 1/0
[Ci fib]
+0.5 -5.5 64 -1 -1 1025.2 972.0
18 24.03 штиль 0 50 км ясно -3.2 -6.1 80 -4 -4 1024.4 970.5
21 24.03 штиль 0 50 км 10/0
[Cs]
-2.7 -5.4 82 -4 -4 1023.3 969.6
00 25.03 ЮВ 1 50 км 10/0
[Ac und]
-2.2 -5.8 76 -4 -4 1022.6 968.9 -3.8 10
03 25.03 штиль 0 50 км 9/0
[Ac As Cs]
+1.0 -5.8 60 0 +3 1021.5 968.5
06 25.03 З 1 50 км 10/0
[Ac und]
+5.6 -6.4 42 +5 +9 1020.8 968.7
09 25.03 ЮВ 1 50 км 10/6 1000 м
[Sc Ac und]
+5.7 -4.3 49 +5 +6 1020.3 968.3
12 25.03 ЮВ 1 50 км 10/4 1000 м
[Sc Ac und]
+6.0 -1.5 59 +5 +5 1020.8 968.7 +7.4
15 25.03 СЗ 3 50 км 10/5 1000 м
[Cb cap Ac As]
+4.4 -0.4 71 +1 +1 1022.7 970.4
18 25.03 СЗ 1 50 км 10/5 1000 м
[Cb cap Ac As]
+2.2 -0.5 82 +1 +1 1024.5 971.7
21 25.03 СЗ 1 50 км 10/10 1000 м
[Cb cap]
+1.1 -0.5 89 -1 -1 1026.0 972.9

 

Местоположение метеостанции Чарышское (Алтайский край, Россия): широта 51.38 долгота 83.58 высота над уровнем моря 429 м.

В архиве по умолчанию представлена погода в Чарышском за последнюю неделю. Архивные данные за месяц целиком и за предыдущие месяцы, начиная с января 2011 года, Вы можете получить, выбрав интересующий диапазон дат из раскрывающегося списка и нажав кнопку "Ввод!".

Внимание! Время в таблицах - всемирное. Для получения местного времени необходимо прибавить поправку, которая в Чарышском равна 7 ч.

Смотрите также архив погоды в соседних городах и на ближайших метеорологических станциях:

Погода в Солонешном (Алтайский край, Россия) (59 км)
Погода в Краснощеково (Алтайский край, Россия) (67 км)
Погода в Усть-Калманке (Алтайский край, Россия) (83 км)
Погода в Усть-Кане (Алтай, Россия) (96 км)
Погода в Змеиногорске (Алтайский край, Россия) (101 км)
Погода в Усть-Чарышской Пристани (Алтайский край, Россия) (114 км)
Погода в Белокурихе (Алтайский край, Россия) (117 км)
Погода в Риддере (Восточно-Казахстанская область, Казахстан) (117 км)
Погода в Шипуново (Алтайский край, Россия) (125 км)
Погода в Секисовке (Восточно-Казахстанская область, Казахстан) (136 км)

Пояснения к столбцам:

Ветер - указаны скорость ветра в м/с - средняя за 10 мин, порывы в срок и между сроками (в фигурных скобках) и направление, откуда дует ветер: С - северный, СВ - северо-восточный, В - восточный, ЮВ - юго-восточный, Ю - южный, ЮЗ - юго-западный, З - западный, СЗ - северо-западный.
Видимость - горизонтальная дальность видимости в метрах или километрах. При видимости от 1 до 10 км при отсутствии осадков обычно наблюдается дымка, при ухудшении видимости до 1 км и менее - туман. В сухую погоду видимость может ухудшаться дымом, пылью или мглою.
Явления - указаны атмосферные явления, наблюдавшиеся в срок или в последний час перед сроком; фигурными скобками обозначены явления, наблюдавшиеся между сроками (за 1-3 часа до срока); квадратными скобками обозначены град или гололедные отложения с указанием их диаметра в мм.
Облачность - указаны через наклонную черту общая и нижняя облачность в баллах и высота нижней границы облаков в метрах; квадратными скобками обозначены формы облаков: Ci - перистые, Cs - перисто-слоистые, Cc - перисто-кучевые, Ac - высококучевые, As - высокослоистые, Sc - слоисто-кучевые, Ns - слоисто-дождевые, Cu - кучевые, Cb - кучево-дождевые. Подробнее классификацию облаков см. в Атласе облаков (PDF).
T - Температура воздуха - температура, измеренная на высоте 2 м над землей.
Td - Температура точки росы - температура, при понижении до которой содержащийся в воздухе водяной пар достигнет насыщения.
f - Относительная влажность воздуха - влажноcть воздуха, измеренная на высоте 2 м над землей.
Te - Эффективная температура - температура, которую ощущает одетый по сезону человек в тени. Характеристика душности погоды. При расчете учитывается влияние влажности воздуха и скорости ветра на теплоощущения человека.
Tes - Эффективная температура на солнце - температура, которую ощущает человек, с поправкой на солнечный нагрев. Характеристика знойности погоды. Зависит от высоты солнца над горизонтом, облачности и скорости ветра. Ночью, в пасмурную погоду, а также при ветре 12 м/с и более поправка равна нулю.
P - Атмосферное давление - приведенное к уровню моря атмосферное давление.
Po - Атмосферное давление - измеренное на уровне метеостанции атмосферное давление.
Tmin - Минимальная температура - минимум температуры воздуха на высоте 2 м над землей.
Tmax - Максимальная температура - максимум температуры воздуха на высоте 2 м над землей.
R - Количество осадков - Количество выпавших осадков, мм. При наведении курсора мыши на число - период времени, за который выпало указанное количество осадков.
S - Снежный покров - Высота снежного покрова, см. При наведении курсора мыши на число - состояние снежного покрова и степень покрытия местности в баллах.